When you browse on this site, cookies collect data to enhance your experience and personalize the content and advertising you see.
Visit our Privacy Policy to learn more. By continuing to use the site, you agree to this use of cookies and data.
  • In Austria
  • List of Countries
  • For 7 days
  • Water Temperature
  • Weather Map
  • News
  • Weather Widgets
  • user-avatar
    Login

    Hourly Weather Vanadzor

    Today, 27 May, Wednesday

    Time Temperature Precipitation Wind Pressure Humidity
    00:00 +11°C° 0 mm 1 mps 638 mmHg 88%
    01:00 +11°C° 0 mm 1 mps 638 mmHg 90%
    02:00 +10°C° 0 mm 1 mps 638 mmHg 91%
    03:00 +10°C° 0 mm 1 mps 638 mmHg 92%
    04:00 +11°C° 0 mm 1 mps 638 mmHg 91%
    05:00 +11°C° 0 mm 1 mps 639 mmHg 91%
    06:00 +12°C° 0 mm 1 mps 639 mmHg 90%
    07:00 +14°C° 0 mm 1 mps 640 mmHg 83%
    08:00 +16°C° 0 mm 1 mps 640 mmHg 77%
    09:00 +18°C° 0 mm 2 mps 641 mmHg 70%
    10:00 +18°C° 0 mm 2 mps 641 mmHg 69%
    11:00 +19°C° 0 mm 2 mps 641 mmHg 68%
    12:00 +20°C° 0 mm 2 mps 641 mmHg 67%
    13:00 +20°C° 0.1 mm 2 mps 640 mmHg 68%
    14:00 +20°C° 0.1 mm 2 mps 640 mmHg 68%
    15:00 +20°C° 0.1 mm 2 mps 639 mmHg 69%
    16:00 +19°C° 0.1 mm 2 mps 639 mmHg 74%
    17:00 +19°C° 0.1 mm 2 mps 639 mmHg 80%
    18:00 +19°C° 0.1 mm 1 mps 639 mmHg 85%
    19:00 +16°C° 0 mm 1 mps 638 mmHg 87%
    20:00 +15°C° 0 mm 1 mps 638 mmHg 89%
    21:00 +13°C° 0 mm 1 mps 638 mmHg 91%
    22:00 +13°C° 0 mm 1 mps 637 mmHg 88%
    23:00 +13°C° 0 mm 1 mps 637 mmHg 86%

    Tomorrow, 28 May, Thursday

    Time Temperature Precipitation Wind Pressure Humidity
    00:00 +12°C° 0 mm 1 mps 637 mmHg 83%
    01:00 +12°C° 0 mm 1 mps 637 mmHg 82%
    02:00 +12°C° 0 mm 1 mps 637 mmHg 81%
    03:00 +12°C° 0 mm 1 mps 637 mmHg 81%
    04:00 +13°C° 0 mm 1 mps 637 mmHg 79%
    05:00 +14°C° 0 mm 1 mps 637 mmHg 76%
    06:00 +15°C° 0 mm 1 mps 638 mmHg 74%
    07:00 +18°C° 0 mm 1 mps 638 mmHg 68%
    08:00 +21°C° 0 mm 1 mps 639 mmHg 61%
    09:00 +21°C° 0 mm 0 mps 639 mmHg 55%
    10:00 +24°C° 0.1 mm 1 mps 639 mmHg 53%
    11:00 +24°C° 0.1 mm 1 mps 639 mmHg 52%
    12:00 +25°C° 0.1 mm 1 mps 639 mmHg 50%
    13:00 +25°C° 0.2 mm 1 mps 639 mmHg 51%
    14:00 +25°C° 0.2 mm 1 mps 638 mmHg 51%
    15:00 +25°C° 0.2 mm 1 mps 638 mmHg 52%
    16:00 +24°C° 0.4 mm 1 mps 637 mmHg 60%
    17:00 +23°C° 0.4 mm 1 mps 637 mmHg 68%
    18:00 +23°C° 0.4 mm 1 mps 637 mmHg 76%
    19:00 +20°C° 0.1 mm 1 mps 637 mmHg 78%
    20:00 +18°C° 0.1 mm 1 mps 636 mmHg 80%
    21:00 +15°C° 0.1 mm 1 mps 636 mmHg 81%
    22:00 +15°C° 0 mm 1 mps 636 mmHg 81%
    23:00 +15°C° 0 mm 1 mps 636 mmHg 81%

    Day after tomorrow, 29 May, Friday

    Time Temperature Precipitation Wind Pressure Humidity
    00:00 +14°C° 0 mm 1 mps 636 mmHg 81%
    01:00 +14°C° 0 mm 1 mps 635 mmHg 82%
    02:00 +14°C° 0 mm 1 mps 635 mmHg 83%
    03:00 +14°C° 0 mm 1 mps 634 mmHg 83%
    04:00 +15°C° 0 mm 1 mps 634 mmHg 81%
    05:00 +15°C° 0 mm 1 mps 635 mmHg 79%
    06:00 +16°C° 0 mm 1 mps 635 mmHg 77%
    07:00 +19°C° 0 mm 1 mps 635 mmHg 71%
    08:00 +21°C° 0 mm 1 mps 635 mmHg 65%
    09:00 +23°C° 0 mm 2 mps 635 mmHg 59%
    10:00 +24°C° 0.2 mm 2 mps 635 mmHg 56%
    11:00 +25°C° 0.2 mm 3 mps 635 mmHg 53%
    12:00 +26°C° 0.2 mm 4 mps 635 mmHg 51%
    13:00 +25°C° 0.8 mm 4 mps 634 mmHg 54%
    14:00 +23°C° 0.8 mm 4 mps 633 mmHg 58%
    15:00 +22°C° 0.8 mm 3 mps 632 mmHg 62%
    16:00 +22°C° 0.4 mm 3 mps 632 mmHg 66%
    17:00 +21°C° 0.4 mm 2 mps 633 mmHg 70%
    18:00 +20°C° 0.4 mm 2 mps 633 mmHg 75%
    19:00 +19°C° 0.3 mm 1 mps 633 mmHg 76%
    20:00 +16°C° 0.3 mm 1 mps 633 mmHg 78%
    21:00 +14°C° 0.3 mm 1 mps 632 mmHg 80%
    22:00 +14°C° 0.1 mm 1 mps 632 mmHg 76%
    23:00 +13°C° 0.1 mm 1 mps 632 mmHg 73%

    30 May, Saturday

    Time Temperature Precipitation Wind Pressure Humidity
    00:00 +13°C° 0.1 mm 2 mps 632 mmHg 69%
    01:00 +12°C° 0 mm 2 mps 632 mmHg 68%
    02:00 +10°C° 0 mm 2 mps 632 mmHg 67%
    03:00 +10°C° 0 mm 2 mps 632 mmHg 66%
    04:00 +10°C° 0 mm 2 mps 632 mmHg 66%
    05:00 +10°C° 0 mm 2 mps 633 mmHg 66%
    06:00 +10°C° 0 mm 2 mps 633 mmHg 67%
    07:00 +13°C° 0 mm 2 mps 634 mmHg 59%
    08:00 +15°C° 0 mm 2 mps 635 mmHg 52%
    09:00 +17°C° 0 mm 2 mps 635 mmHg 44%
    10:00 +18°C° 0 mm 2 mps 635 mmHg 42%
    11:00 +19°C° 0 mm 2 mps 636 mmHg 40%
    12:00 +20°C° 0 mm 2 mps 636 mmHg 38%
    13:00 +20°C° 0 mm 3 mps 636 mmHg 39%
    14:00 +21°C° 0 mm 3 mps 636 mmHg 39%
    15:00 +21°C° 0 mm 3 mps 636 mmHg 40%
    16:00 +20°C° 0 mm 2 mps 635 mmHg 48%
    17:00 +19°C° 0 mm 2 mps 635 mmHg 56%
    18:00 +19°C° 0 mm 1 mps 635 mmHg 64%
    19:00 +16°C° 0 mm 1 mps 635 mmHg 70%
    20:00 +13°C° 0 mm 1 mps 634 mmHg 76%
    21:00 +11°C° 0 mm 1 mps 634 mmHg 83%
    22:00 +11°C° 0 mm 1 mps 634 mmHg 82%
    23:00 +10°C° 0 mm 1 mps 634 mmHg 81%

    31 May, Sunday

    Time Temperature Precipitation Wind Pressure Humidity
    00:00 +10°C° 0 mm 1 mps 634 mmHg 80%
    01:00 +10°C° 0 mm 1 mps 634 mmHg 78%
    02:00 +10°C° 0 mm 1 mps 634 mmHg 75%
    03:00 +10°C° 0 mm 1 mps 634 mmHg 73%
    04:00 +10°C° 0 mm 1 mps 635 mmHg 73%
    05:00 +11°C° 0 mm 1 mps 636 mmHg 73%
    06:00 +12°C° 0 mm 1 mps 636 mmHg 74%
    07:00 +14°C° 0 mm 1 mps 637 mmHg 67%
    08:00 +16°C° 0 mm 1 mps 637 mmHg 60%
    09:00 +19°C° 0 mm 1 mps 638 mmHg 53%
    10:00 +20°C° 0 mm 1 mps 638 mmHg 52%
    11:00 +20°C° 0 mm 1 mps 638 mmHg 50%
    12:00 +20°C° 0 mm 2 mps 638 mmHg 49%
    13:00 +20°C° 0.1 mm 2 mps 638 mmHg 50%
    14:00 +20°C° 0.1 mm 2 mps 637 mmHg 51%
    15:00 +20°C° 0.1 mm 2 mps 637 mmHg 52%
    16:00 +19°C° 0.1 mm 2 mps 637 mmHg 59%
    17:00 +18°C° 0.1 mm 2 mps 637 mmHg 66%
    18:00 +19°C° 0.1 mm 1 mps 636 mmHg 73%
    19:00 +16°C° 0 mm 1 mps 636 mmHg 78%
    20:00 +14°C° 0 mm 1 mps 636 mmHg 82%
    21:00 +12°C° 0 mm 1 mps 636 mmHg 87%
    22:00 +11°C° 0 mm 1 mps 635 mmHg 86%
    23:00 +11°C° 0 mm 1 mps 635 mmHg 85%

    1 June, Monday

    Time Temperature Precipitation Wind Pressure Humidity
    00:00 +11°C° 0 mm 1 mps 635 mmHg 84%
    01:00 +10°C° 0 mm 1 mps 635 mmHg 83%
    02:00 +10°C° 0 mm 1 mps 635 mmHg 82%
    03:00 +10°C° 0 mm 1 mps 634 mmHg 81%
    04:00 +11°C° 0 mm 1 mps 635 mmHg 81%
    05:00 +12°C° 0 mm 1 mps 635 mmHg 80%
    06:00 +13°C° 0 mm 1 mps 635 mmHg 79%
    07:00 +15°C° 0 mm 1 mps 636 mmHg 73%
    08:00 +16°C° 0 mm 1 mps 636 mmHg 67%
    09:00 +19°C° 0 mm 1 mps 636 mmHg 61%
    10:00 +19°C° 0 mm 2 mps 637 mmHg 58%
    11:00 +20°C° 0 mm 2 mps 637 mmHg 54%
    12:00 +21°C° 0 mm 3 mps 637 mmHg 51%
    13:00 +22°C° 0.2 mm 3 mps 636 mmHg 51%
    14:00 +22°C° 0.2 mm 3 mps 636 mmHg 51%
    15:00 +22°C° 0.2 mm 3 mps 636 mmHg 50%
    16:00 +21°C° 0.2 mm 3 mps 635 mmHg 56%
    17:00 +21°C° 0.2 mm 2 mps 635 mmHg 61%
    18:00 +20°C° 0.2 mm 2 mps 635 mmHg 67%
    19:00 +18°C° 0 mm 2 mps 634 mmHg 65%
    20:00 +16°C° 0 mm 2 mps 634 mmHg 64%
    21:00 +14°C° 0 mm 2 mps 634 mmHg 63%
    22:00 +14°C° 0 mm 2 mps 634 mmHg 61%
    23:00 +13°C° 0 mm 2 mps 633 mmHg 59%
    Show more